EST,Max TemperatureF,Mean TemperatureF,Min TemperatureF,Max Dew PointF,MeanDew PointF,Min DewpointF,Max Humidity, Mean Humidity, Min Humidity, Max Sea Level PressureIn, Mean Sea Level PressureIn, Min Sea Level PressureIn, Max VisibilityMiles, Mean VisibilityMiles, Min VisibilityMiles, Max Wind SpeedMPH, Mean Wind SpeedMPH, Max Gust SpeedMPH,PrecipitationIn, CloudCover, Events, WindDirDegrees
2012-1-1,80,68,56,62,59,54,93,76,48,30.29,30.22,30.18,10,9,5,12,3,14,0.00,0,,283
2012-1-2,76,65,54,63,54,42,100,75,48,30.25,30.17,30.12,10,9,0,20,8,25,0.00,2,Fog,328
2012-1-3,58,49,40,42,28,15,66,43,22,30.40,30.32,30.22,10,10,10,25,12,32,0.00,1,,354
2012-1-4,63,49,34,35,28,23,69,47,23,30.44,30.37,30.31,10,10,10,12,5,15,0.00,0,,13
2012-1-5,70,54,38,49,37,29,89,58,24,30.35,30.28,30.22,10,10,10,12,4,16,0.00,0,,360
2012-1-6,74,60,45,53,48,43,93,74,38,30.27,30.20,30.15,10,9,7,13,1,15,0.00,1,,80
2012-1-7,75,62,48,54,50,46,96,72,38,30.22,30.17,30.14,10,8,4,10,3,14,0.00,0,,208
2012-1-8,80,66,52,57,51,47,93,65,35,30.25,30.20,30.15,10,10,9,13,3,17,0.00,1,,117
2012-1-9,82,69,56,60,56,52,90,69,39,30.22,30.15,30.09,10,10,7,12,4,16,0.00,0,,127
2012-1-10,81,69,57,60,57,53,93,70,39,30.12,30.05,29.98,10,9,4,13,3,16,0.00,1,,153
2012-1-11,74,68,61,67,64,58,93,82,73,29.98,29.88,29.83,10,10,8,24,7,32,T,5,Rain,219
2012-1-12,78,69,60,64,60,57,93,74,47,30.01,29.95,29.88,10,10,8,15,5,20,0.00,2,,260
2012-1-13,73,63,53,63,53,40,93,68,44,30.24,30.12,30.01,10,10,10,16,7,21,0.00,3,,335
2012-1-14,63,55,46,43,35,25,71,50,23,30.39,30.31,30.25,10,10,10,18,8,23,0.00,3,,27
2012-1-15,73,56,39,37,33,23,79,48,22,30.48,30.40,30.35,10,10,10,16,6,20,0.00,0,,48
2012-1-16,76,62,48,50,46,37,72,58,41,30.45,30.38,30.31,10,10,10,20,8,26,0.00,1,,74
2012-1-17,78,65,52,55,53,49,93,70,43,30.33,30.25,30.19,10,10,10,13,3,17,0.00,1,,189
2012-1-18,78,67,55,61,57,52,93,72,48,30.18,30.11,30.04,10,10,10,15,4,18,0.00,1,,260
2012-1-19,77,67,56,62,48,27,93,62,16,30.18,30.11,30.03,10,10,10,16,8,21,0.00,2,,38
2012-1-20,81,67,52,53,49,42,83,61,30,30.22,30.16,30.12,10,10,10,14,5,21,0.00,0,,114
2012-1-21,79,67,54,59,55,51,93,67,42,30.17,30.11,30.06,10,10,10,13,4,17,0.00,0,,174
2012-1-22,83,69,55,59,54,49,93,68,33,30.15,30.11,30.07,10,10,8,12,2,23,0.00,0,,100
2012-1-23,83,72,60,64,60,56,93,72,49,30.14,30.10,30.06,10,10,7,13,4,20,0.00,2,,147
2012-1-24,85,73,61,65,62,58,90,72,40,30.18,30.14,30.09,10,10,8,13,4,16,0.00,3,,143
2012-1-25,86,74,62,65,61,55,93,70,37,30.18,30.12,30.07,10,10,6,16,6,21,0.00,2,,127
2012-1-26,85,75,64,65,63,59,93,72,44,30.11,30.05,29.98,10,10,10,17,8,25,0.00,1,,154
2012-1-27,77,73,68,70,65,61,90,81,64,30.08,30.03,29.98,10,10,2,20,7,24,0.15,5,Rain,245
2012-1-28,77,70,63,60,58,55,84,70,54,30.19,30.14,30.08,10,10,10,14,6,18,0.00,2,,350
2012-1-29,79,70,60,55,51,46,78,59,33,30.29,30.22,30.17,10,10,10,17,8,21,0.00,0,,46
2012-1-30,81,68,55,55,52,47,86,62,39,30.33,30.28,30.23,10,10,10,20,12,25,0.00,0,,60
2012-1-31,82,70,58,56,54,50,80,60,37,30.32,30.27,30.21,10,10,10,18,9,24,0.00,0,,75